Weather History for KHLG - February, 2013

Change the Weather History Date:

Wednesday, February 27, 2013

  Actual Average Record
Temperature  
Mean Temperature 37 °F 34 °F  
Max Temperature 41 °F 43 °F 59 °F (2009)
Min Temperature 33 °F 26 °F 4 °F (2015)
Degree Days  
Heating Degree Days 28 31  
Month to date heating degree days 949 895  
Since 1 July heating degree days 3980 4137  
Cooling Degree Days 0    
Month to date cooling degree days 0  
Year to date cooling degree days 0  
Moisture  
Dew Point 34 °F    
Average Humidity 82    
Maximum Humidity 93    
Minimum Humidity 70    
Precipitation  
Precipitation 0.17 in 0.07 in 0.19 in (2011)
Month to date precipitation 1.71 2.03  
Sea Level Pressure  
Sea Level Pressure 29.62 in    
Wind  
Wind Speed 10 mph (SW)    
Max Wind Speed 17 mph    
Max Gust Speed 25 mph    
Visibility 9 miles    
Events Rain , Snow    
T = Trace of Precipitation, MM = Missing Value Source: NWS Daily Summary

Daily Weather History Graph

Daily Weather History Graph

Search for Another Location

Airport or City:

Trip Planner

Search our weather history database for the weather conditions in past years. The results will help you decide how hot, cold, wet, or windy it might be!

Date:

Astronomy

Feb. 27, 2013 Rise Set
Actual Time 6:58 AM EST 6:12 PM EST
Civil Twilight 6:31 AM EST 6:39 PM EST
Nautical Twilight 5:59 AM EST 7:11 PM EST
Astronomical Twilight 5:28 AM EST 7:42 PM EST
Moon 8:32 PM EST (2/27) 7:33 AM EST (2/27)
Length of Visible Light 12h 08m
Length of Day
11h 13m
Waning Gibbous, 96% of the Moon is Illuminated
Feb 27
Waning Gibbous
Mar 4
Last Quarter
Mar 11
New
Mar 19
First Quarter
Mar 27
Full

Hourly Weather History & Observations

Time (EST) Temp. Windchill Dew Point Humidity Pressure Visibility Wind Dir Wind Speed Gust Speed Precip Events Conditions
12:05 AM 39.2 °F 33.0 °F 35.6 °F 87% 29.53 in 10.0 mi SSE 9.2 mph 17.3 mph N/A   Overcast
12:53 AM 39.9 °F 33.9 °F 35.1 °F 83% 29.56 in 10.0 mi SE 9.2 mph - N/A   Overcast
1:53 AM 39.9 °F 33.9 °F 37.0 °F 89% 29.55 in 10.0 mi SSE 9.2 mph - N/A   Overcast
2:48 AM 39.2 °F 33.6 °F 37.4 °F 93% 29.52 in 10.0 mi South 8.1 mph - 0.01 in Rain Light Rain
2:53 AM 39.9 °F 35.1 °F 37.9 °F 93% 29.55 in 10.0 mi South 6.9 mph - 0.01 in Rain Light Rain
3:53 AM 41.0 °F 35.8 °F 39.0 °F 93% 29.55 in 9.0 mi SSW 8.1 mph - 0.04 in Rain Light Rain
4:02 AM 41.0 °F 34.7 °F 39.2 °F 93% 29.52 in 9.0 mi SSW 10.4 mph - 0.01 in Rain Light Rain
4:29 AM 39.2 °F 31.2 °F 37.4 °F 93% 29.53 in 10.0 mi SW 13.8 mph 19.6 mph 0.02 in Rain Light Rain
4:42 AM 39.2 °F 30.5 °F 35.6 °F 87% 29.54 in 10.0 mi WSW 16.1 mph 23.0 mph 0.03 in Rain Light Rain
4:50 AM 39.2 °F 33.0 °F 35.6 °F 87% 29.54 in 9.0 mi WSW 9.2 mph 19.6 mph 0.03 in Rain Light Rain
4:53 AM 39.9 °F 33.4 °F 37.0 °F 89% 29.57 in 10.0 mi WSW 10.4 mph 19.6 mph 0.03 in Rain Light Rain
5:13 AM 39.2 °F 33.6 °F 37.4 °F 93% 29.55 in 9.0 mi WSW 8.1 mph 17.3 mph 0.01 in Rain Light Rain
5:53 AM 39.0 °F 34.8 °F 37.0 °F 93% 29.58 in 10.0 mi SW 5.8 mph - 0.02 in Rain Light Rain
6:53 AM 39.0 °F 33.4 °F 37.0 °F 93% 29.60 in 8.0 mi WSW 8.1 mph - 0.01 in Rain Light Rain
7:48 AM 39.2 °F 33.6 °F 37.4 °F 93% 29.60 in 10.0 mi WSW 8.1 mph - 0.01 in   Overcast
7:53 AM 39.0 °F 32.8 °F 37.0 °F 93% 29.63 in 10.0 mi SW 9.2 mph - 0.01 in   Overcast
8:30 AM 39.2 °F 31.2 °F 35.6 °F 87% 29.62 in 10.0 mi WSW 13.8 mph 20.7 mph N/A   Overcast
8:46 AM 39.2 °F 30.8 °F 35.6 °F 87% 29.62 in 10.0 mi WSW 15.0 mph 21.9 mph N/A   Overcast
8:53 AM 39.9 °F 33.9 °F 35.1 °F 83% 29.65 in 10.0 mi SW 9.2 mph 20.7 mph N/A   Overcast
9:20 AM 39.2 °F 31.6 °F 35.6 °F 87% 29.63 in 10.0 mi WSW 12.7 mph 17.3 mph N/A   Overcast
10:53 AM 41.0 °F 33.5 °F 33.1 °F 73% 29.66 in 10.0 mi WSW 13.8 mph 19.6 mph 0.00 in   Overcast
11:53 AM 39.0 °F 31.0 °F 34.0 °F 82% 29.66 in 10.0 mi WSW 13.8 mph 24.2 mph N/A   Overcast
12:06 PM 39.2 °F 30.8 °F 33.8 °F 81% 29.63 in 10.0 mi SW 15.0 mph - N/A   Overcast
12:53 PM 39.0 °F 31.4 °F 34.0 °F 82% 29.66 in 10.0 mi WSW 12.7 mph 25.3 mph N/A   Overcast
1:53 PM 39.9 °F 33.4 °F 34.0 °F 79% 29.64 in 10.0 mi SW 10.4 mph - N/A   Overcast
2:53 PM 39.9 °F 31.8 °F 33.1 °F 77% 29.65 in 10.0 mi WSW 15.0 mph 25.3 mph N/A   Overcast
3:02 PM 41.0 °F 34.7 °F 33.8 °F 76% 29.62 in 10.0 mi SW 10.4 mph 16.1 mph N/A   Overcast
3:23 PM 41.0 °F 35.2 °F 33.8 °F 76% 29.62 in 10.0 mi SW 9.2 mph - N/A   Overcast
3:53 PM 41.0 °F 34.7 °F 32.0 °F 70% 29.65 in 10.0 mi WSW 10.4 mph 20.7 mph N/A   Overcast
4:49 PM 37.4 °F 30.3 °F 33.8 °F 87% 29.63 in 10.0 mi WSW 10.4 mph - 0.00 in Rain Light Rain
4:53 PM 37.9 °F 32.1 °F 34.0 °F 86% 29.66 in 10.0 mi WSW 8.1 mph - 0.00 in Rain Light Rain
5:02 PM 37.4 °F 32.1 °F 33.8 °F 87% 29.64 in 10.0 mi WSW 6.9 mph - 0.00 in Rain Light Rain
5:53 PM 37.0 °F 29.3 °F 34.0 °F 89% 29.68 in 8.0 mi SW 11.5 mph 18.4 mph 0.01 in Rain Light Rain
6:53 PM 36.0 °F 30.3 °F 34.0 °F 93% 29.69 in 9.0 mi SW 6.9 mph - 0.01 in Rain Light Rain
7:53 PM 35.1 °F 26.9 °F 32.0 °F 89% 29.70 in 6.0 mi West 11.5 mph - 0.01 in Rain Light Rain
8:17 PM 33.8 °F 27.0 °F 32.0 °F 93% 29.67 in 10.0 mi West 8.1 mph - 0.01 in Snow Light Snow
8:50 PM 33.8 °F 25.3 °F 30.2 °F 87% 29.67 in 10.0 mi West 11.5 mph - 0.01 in   Overcast
8:53 PM 34.0 °F 26.6 °F 30.9 °F 89% 29.70 in 10.0 mi WSW 9.2 mph - 0.01 in   Overcast
9:53 PM 34.0 °F 28.0 °F 30.9 °F 89% 29.70 in 9.0 mi WSW 6.9 mph - 0.00 in   Overcast
10:53 PM 33.1 °F 26.1 °F 30.9 °F 92% 29.69 in 7.0 mi SW 8.1 mph - 0.00 in   Overcast
11:05 PM 33.8 °F 25.3 °F 30.2 °F 87% 29.65 in 5.0 mi SW 11.5 mph - 0.00 in Snow Light Snow
11:24 PM 33.8 °F 25.3 °F 30.2 °F 87% 29.65 in 5.0 mi SW 11.5 mph - 0.00 in Snow Light Snow
11:48 PM 33.8 °F 25.8 °F 28.4 °F 81% 29.64 in 6.0 mi WSW 10.4 mph 17.3 mph 0.00 in Snow Light Snow
11:53 PM 33.1 °F 24.4 °F 28.9 °F 85% 29.68 in 5.0 mi WSW 11.5 mph - 0.00 in Snow Light Snow